Weather History for KLWB - April, 2014

Change the Weather History Date:

Monday, April 28, 2014

  Actual Average Record
Temperature  
Mean Temperature 56 °F 54 °F  
Max Temperature 63 °F 67 °F 84 °F (1986)
Min Temperature 48 °F 40 °F 28 °F (1998)
Degree Days  
Heating Degree Days 9    
Month to date heating degree days 375  
Since 1 July heating degree days  
Cooling Degree Days 0    
Month to date cooling degree days 0  
Year to date cooling degree days 0  
Growing Degree Days 6 (Base 50)    
Moisture  
Dew Point 44 °F    
Average Humidity 70    
Maximum Humidity 93    
Minimum Humidity 46    
Precipitation  
Precipitation 0.53 in - 1.90 in (1984)
Month to date precipitation 2.74  
Year to date precipitation 7.42  
Snow  
Snow 0.00 in - - ()
Month to date snowfall T  
Since 1 July snowfall M  
Snow Depth 0.00 in    
Sea Level Pressure  
Sea Level Pressure 29.98 in    
Wind  
Wind Speed 4 mph (ENE)    
Max Wind Speed 9 mph    
Max Gust Speed 20 mph    
Visibility 8 miles    
Events Rain , Thunderstorm    
T = Trace of Precipitation, MM = Missing Value Source: NWS Daily Summary

Daily Weather History Graph

Daily Weather History Graph

Search for Another Location

Airport or City:

Trip Planner

Search our weather history database for the weather conditions in past years. The results will help you decide how hot, cold, wet, or windy it might be!

Date:

Astronomy

Apr. 28, 2014 Rise Set
Actual Time 6:29 AM EDT 8:09 PM EDT
Civil Twilight 6:01 AM EDT 8:37 PM EDT
Nautical Twilight 5:27 AM EDT 9:11 PM EDT
Astronomical Twilight 4:51 AM EDT 9:47 PM EDT
Moon 6:05 AM EDT (4/28) 7:46 PM EDT (4/28)
Length of Visible Light 14h 36m
Length of Day
13h 40m
Waning Crescent, 0% of the Moon is Illuminated
Apr 28
Waning Crescent
Apr 29
New
May 6
First Quarter
May 14
Full
May 21
Last Quarter

Hourly Weather History & Observations

Time (EDT) Temp. Dew Point Humidity Pressure Visibility Wind Dir Wind Speed Gust Speed Precip Events Conditions
12:15 AM 64.2 °F 42.1 °F 44% 30.01 in 10.0 mi ESE 5.8 mph - N/A   Scattered Clouds
12:35 AM 63.5 °F 42.1 °F 46% 30.01 in 10.0 mi ESE 6.9 mph - N/A   Scattered Clouds
12:55 AM 62.8 °F 41.9 °F 46% 30.01 in 10.0 mi Calm Calm - N/A   Clear
1:15 AM 62.2 °F 41.9 °F 47% 30.01 in 10.0 mi East 4.6 mph - N/A   Clear
1:35 AM 61.5 °F 41.9 °F 49% 30.00 in 10.0 mi Calm Calm - N/A   Clear
1:55 AM 60.4 °F 41.9 °F 50% 30.00 in 10.0 mi ENE 3.5 mph - N/A   Clear
2:15 AM 59.9 °F 41.7 °F 51% 30.00 in 10.0 mi Calm Calm - N/A   Clear
2:35 AM 59.4 °F 41.5 °F 52% 30.00 in 10.0 mi Calm Calm - N/A   Clear
2:55 AM 59.0 °F 41.4 °F 52% 30.01 in 10.0 mi East 3.5 mph - N/A   Clear
3:15 AM 58.1 °F 41.2 °F 53% 30.01 in 10.0 mi East 3.5 mph - N/A   Clear
3:35 AM 57.6 °F 41.4 °F 55% 30.01 in 10.0 mi East 3.5 mph - N/A   Clear
3:55 AM 57.2 °F 40.8 °F 54% 30.01 in 10.0 mi East 4.6 mph - N/A   Clear
4:15 AM 56.5 °F 40.3 °F 55% 30.00 in 10.0 mi ENE 3.5 mph - N/A   Clear
4:35 AM 55.9 °F 39.4 °F 54% 30.00 in 10.0 mi East 4.6 mph - N/A   Clear
4:55 AM 55.9 °F 39.0 °F 53% 30.00 in 10.0 mi East 4.6 mph - N/A   Clear
5:15 AM 55.6 °F 38.3 °F 52% 29.99 in 10.0 mi ESE 8.1 mph - N/A   Clear
5:35 AM 55.4 °F 38.3 °F 53% 30.00 in 10.0 mi East 3.5 mph - N/A   Clear
6:15 AM 53.8 °F 37.9 °F 55% 29.99 in 10.0 mi ENE 5.8 mph - N/A   Clear
6:35 AM 53.8 °F 37.8 °F 55% 30.00 in 10.0 mi East 4.6 mph - N/A   Clear
6:55 AM 53.2 °F 37.8 °F 56% 30.01 in 10.0 mi East 4.6 mph - N/A   Scattered Clouds
7:15 AM 52.7 °F 37.6 °F 56% 30.01 in 10.0 mi East 3.5 mph - N/A   Scattered Clouds
7:35 AM 52.7 °F 38.1 °F 58% 30.01 in 10.0 mi East 4.6 mph - N/A   Scattered Clouds
7:55 AM 53.6 °F 38.7 °F 57% 30.01 in 10.0 mi East 3.5 mph - N/A   Clear
8:15 AM 54.5 °F 39.7 °F 57% 30.02 in 10.0 mi ENE 5.8 mph - N/A   Clear
8:35 AM 54.3 °F 40.5 °F 59% 30.02 in 10.0 mi East 4.6 mph - N/A   Clear
8:55 AM 54.1 °F 40.8 °F 61% 30.02 in 10.0 mi East 5.8 mph - N/A   Mostly Cloudy
9:15 AM 54.1 °F 41.5 °F 62% 30.01 in 10.0 mi ESE 8.1 mph - N/A   Scattered Clouds
9:55 AM 54.9 °F 41.9 °F 62% 29.99 in 10.0 mi East 8.1 mph - N/A   Light Drizzle
10:15 AM 55.8 °F 41.2 °F 58% 29.98 in 10.0 mi East 10.4 mph - N/A   Overcast
10:35 AM 55.4 °F 40.6 °F 58% 29.99 in 10.0 mi East 5.8 mph - N/A   Overcast
10:55 AM 55.6 °F 39.7 °F 55% 29.99 in 10.0 mi East 9.2 mph - N/A   Overcast
11:15 AM 55.6 °F 39.6 °F 55% 30.00 in 10.0 mi ESE 6.9 mph - N/A   Overcast
11:35 AM 55.4 °F 39.4 °F 55% 30.03 in 10.0 mi SE 3.5 mph - N/A   Overcast
12:15 PM 50.2 °F 44.6 °F 81% 30.04 in 4.0 mi Calm Calm - 0.03 in Rain Heavy Rain
12:35 PM 49.5 °F 45.7 °F 87% 30.00 in 4.0 mi East 4.6 mph - 0.09 in Rain Rain
1:15 PM 48.7 °F 45.9 °F 90% 29.97 in 3.0 mi East 5.8 mph - 0.06 in Rain , Thunderstorm Light Thunderstorms and Rain
1:35 PM 47.8 °F 45.7 °F 92% 29.99 in 0.8 mi NE 6.9 mph 19.6 mph 0.22 in Thunderstorm Unknown
1:55 PM 48.2 °F 45.9 °F 92% 29.99 in 5.0 mi NE 4.6 mph - 0.23 in Rain , Thunderstorm Light Thunderstorms and Rain
2:15 PM 48.6 °F 46.2 °F 92% 29.99 in 7.0 mi ENE 4.6 mph - N/A Thunderstorm Drizzle
2:55 PM 49.1 °F 46.0 °F 89% 29.98 in 10.0 mi ESE 4.6 mph - 0.01 in Rain Light Rain
3:15 PM 49.5 °F 46.4 °F 89% 29.98 in 10.0 mi Calm Calm - N/A Rain Light Rain
3:35 PM 49.6 °F 46.2 °F 88% 29.98 in 10.0 mi Calm Calm - N/A Rain Light Rain
3:55 PM 50.2 °F 46.9 °F 89% 29.95 in 7.0 mi ENE 5.8 mph - 0.01 in Rain Light Rain
4:15 PM 51.8 °F 47.5 °F 85% 29.96 in 10.0 mi Calm Calm - N/A   Mostly Cloudy
4:35 PM 53.2 °F 48.0 °F 82% 29.94 in 10.0 mi ESE 3.5 mph - N/A   Mostly Cloudy
5:15 PM 52.5 °F 48.2 °F 85% 29.94 in 10.0 mi ENE 3.5 mph - N/A   Overcast
5:35 PM 52.2 °F 48.4 °F 87% 29.95 in 10.0 mi NNE 5.8 mph - N/A Rain Light Rain
5:55 PM 51.8 °F 48.4 °F 88% 29.96 in 10.0 mi NNE 8.1 mph - N/A Rain Rain
6:15 PM 51.6 °F 48.4 °F 89% 29.99 in 7.0 mi North 4.6 mph - N/A Rain Light Rain
6:35 PM 51.4 °F 48.2 °F 89% 29.99 in 5.0 mi Calm Calm - 0.01 in Rain , Thunderstorm Rain
6:55 PM 50.9 °F 48.2 °F 90% 29.96 in 5.0 mi East 3.5 mph - 0.02 in Rain Light Rain
7:15 PM 50.9 °F 48.6 °F 92% 29.92 in 4.0 mi NE 5.8 mph - 0.01 in Rain Light Rain
7:35 PM 50.5 °F 48.6 °F 93% 29.89 in 5.0 mi NE 5.8 mph - 0.02 in Rain Light Rain
7:55 PM 50.4 °F 48.4 °F 93% 29.91 in 7.0 mi NNW 3.5 mph - 0.02 in   Mostly Cloudy
8:15 PM 50.2 °F 48.2 °F 93% 29.92 in 7.0 mi North 3.5 mph - N/A   Clear
8:35 PM 50.2 °F 48.2 °F 93% 29.93 in 7.0 mi NNE 4.6 mph - N/A   Mostly Cloudy
8:55 PM 50.2 °F 48.2 °F 93% 29.94 in 10.0 mi Calm Calm - N/A   Overcast
9:15 PM 50.2 °F 48.2 °F 93% 29.92 in 7.0 mi NE 3.5 mph - N/A   Overcast
9:35 PM 50.4 °F 48.4 °F 93% 29.91 in 7.0 mi NNE 5.8 mph - N/A   Overcast
9:55 PM 50.2 °F 48.2 °F 93% 29.92 in 7.0 mi NNE 5.8 mph - N/A   Overcast
10:15 PM 50.0 °F 48.2 °F 94% 29.92 in 5.0 mi NE 4.6 mph - N/A   Overcast
10:55 PM 50.0 °F 48.2 °F 94% 29.93 in 4.0 mi NE 3.5 mph - N/A   Overcast
11:15 PM 49.8 °F 48.2 °F 94% 29.93 in 3.0 mi Calm Calm - N/A   Overcast
11:35 PM 50.0 °F 48.2 °F 94% 29.94 in 2.5 mi NNE 3.5 mph - N/A   Overcast
11:55 PM 50.0 °F 48.4 °F 94% 29.94 in 2.0 mi NE 3.5 mph - N/A   Overcast